Time,TemperatureF,DewpointF,PressureIn,WindDirection,WindDirectionDegrees,WindSpeedMPH,WindSpeedGustMPH,Humidity,HourlyPrecipIn,Conditions,Clouds,dailyrainin,SoftwareType,DateUTC
2013-08-21 00:04:00,71.0,-99.9,-100.00,South,173,0.0,0.0,-999,-99.99,,,-99.99,,2013-08-21 04:04:00,
2013-08-21 00:14:00,71.0,-99.9,-100.00,South,173,0.0,0.0,-999,-99.99,,,-99.99,,2013-08-21 04:14:00,
2013-08-21 00:24:00,71.0,-99.9,-100.00,South,173,0.0,0.0,-999,-99.99,,,-99.99,,2013-08-21 04:24:00,
2013-08-21 00:54:00,70.0,-99.9,-100.00,West,260,0.0,0.0,-999,-99.99,,,-99.99,,2013-08-21 04:54:00,
2013-08-21 01:02:00,70.0,-99.9,-100.00,West,260,0.0,0.0,-999,-99.99,,,-99.99,,2013-08-21 05:02:00,
2013-08-21 01:13:00,70.0,-99.9,-100.00,West,260,0.0,0.0,-999,-99.99,,,-99.99,,2013-08-21 05:13:00,
2013-08-21 01:23:00,70.0,-99.9,-100.00,West,260,0.0,0.0,-999,-99.99,,,-99.99,,2013-08-21 05:23:00,
2013-08-21 01:52:00,71.0,-99.9,-100.00,West,277,2.0,3.0,-999,0.00,,,-99.99,,2013-08-21 05:52:00,
2013-08-21 02:02:00,71.0,-99.9,-100.00,West,277,2.0,3.0,-999,0.00,,,-99.99,,2013-08-21 06:02:00,
2013-08-21 02:12:00,71.0,-99.9,-100.00,West,277,2.0,3.0,-999,0.00,,,-99.99,,2013-08-21 06:12:00,
2013-08-21 02:22:00,71.0,-99.9,-100.00,West,277,2.0,3.0,-999,0.00,,,-99.99,,2013-08-21 06:22:00,
2013-08-21 02:52:00,67.0,-99.9,-100.00,West,265,0.0,0.0,-999,-99.99,,,-99.99,,2013-08-21 06:52:00,
2013-08-21 03:02:00,67.0,-99.9,-100.00,West,265,0.0,0.0,-999,-99.99,,,-99.99,,2013-08-21 07:02:00,
2013-08-21 03:11:00,67.0,-99.9,-100.00,West,265,0.0,0.0,-999,-99.99,,,-99.99,,2013-08-21 07:11:00,
2013-08-21 03:22:00,67.0,-99.9,-100.00,West,265,0.0,0.0,-999,-99.99,,,-99.99,,2013-08-21 07:22:00,
2013-08-21 03:53:00,67.0,-99.9,-100.00,West,265,0.0,0.0,-999,-99.99,,,-99.99,,2013-08-21 07:53:00,
2013-08-21 04:03:00,67.0,-99.9,-100.00,West,265,0.0,0.0,-999,-99.99,,,-99.99,,2013-08-21 08:03:00,
2013-08-21 04:12:00,67.0,-99.9,-100.00,West,265,0.0,0.0,-999,-99.99,,,-99.99,,2013-08-21 08:12:00,
2013-08-21 04:22:00,67.0,-99.9,-100.00,West,265,0.0,0.0,-999,-99.99,,,-99.99,,2013-08-21 08:22:00,
2013-08-21 04:53:00,66.0,-99.9,-100.00,West,265,0.0,0.0,-999,-99.99,,,-99.99,,2013-08-21 08:53:00,
2013-08-21 05:01:00,66.0,-99.9,-100.00,West,265,0.0,0.0,-999,-99.99,,,-99.99,,2013-08-21 09:01:00,
2013-08-21 05:11:00,66.0,-99.9,-100.00,West,265,0.0,0.0,-999,-99.99,,,-99.99,,2013-08-21 09:11:00,
2013-08-21 05:22:00,66.0,-99.9,-100.00,West,265,0.0,0.0,-999,-99.99,,,-99.99,,2013-08-21 09:22:00,
2013-08-21 05:54:00,65.0,-99.9,-100.00,West,264,0.0,0.0,-999,0.00,,,-99.99,,2013-08-21 09:54:00,
2013-08-21 06:04:00,65.0,-99.9,-100.00,West,264,0.0,0.0,-999,0.00,,,-99.99,,2013-08-21 10:04:00,
2013-08-21 06:13:00,65.0,-99.9,-100.00,West,264,0.0,0.0,-999,0.00,,,-99.99,,2013-08-21 10:13:00,
2013-08-21 06:23:00,65.0,-99.9,-100.00,West,264,0.0,0.0,-999,0.00,,,-99.99,,2013-08-21 10:23:00,
2013-08-21 06:53:00,64.0,-99.9,-100.00,WNW,289,0.0,0.0,-999,0.00,,,-99.99,,2013-08-21 10:53:00,
2013-08-21 07:03:00,64.0,-99.9,-100.00,WNW,289,0.0,0.0,-999,0.00,,,-99.99,,2013-08-21 11:03:00,
2013-08-21 07:12:00,64.0,-99.9,-100.00,WNW,289,0.0,0.0,-999,0.00,,,-99.99,,2013-08-21 11:12:00,
2013-08-21 07:22:00,64.0,-99.9,-100.00,WNW,289,0.0,0.0,-999,0.00,,,-99.99,,2013-08-21 11:22:00,
2013-08-21 07:53:00,67.0,-99.9,-100.00,WNW,289,0.0,1.0,-999,0.00,,,-99.99,,2013-08-21 11:53:00,
2013-08-21 08:01:00,67.0,-99.9,-100.00,WNW,289,0.0,1.0,-999,0.00,,,-99.99,,2013-08-21 12:01:00,
2013-08-21 08:12:00,67.0,-99.9,-100.00,WNW,289,0.0,1.0,-999,0.00,,,-99.99,,2013-08-21 12:12:00,
2013-08-21 08:22:00,67.0,-99.9,-100.00,WNW,289,0.0,1.0,-999,0.00,,,-99.99,,2013-08-21 12:22:00,
2013-08-21 08:52:00,74.0,-99.9,-100.00,WNW,293,0.0,2.0,-999,0.00,,,-99.99,,2013-08-21 12:52:00,
2013-08-21 09:02:00,74.0,-99.9,-100.00,WNW,293,0.0,2.0,-999,0.00,,,-99.99,,2013-08-21 13:02:00,
2013-08-21 09:12:00,74.0,-99.9,-100.00,WNW,293,0.0,2.0,-999,0.00,,,-99.99,,2013-08-21 13:12:00,
2013-08-21 09:22:00,74.0,-99.9,-100.00,WNW,293,0.0,2.0,-999,0.00,,,-99.99,,2013-08-21 13:22:00,
2013-08-21 09:52:00,78.0,-99.9,-100.00,WNW,286,1.0,3.0,-999,0.00,,,-99.99,,2013-08-21 13:52:00,
2013-08-21 10:02:00,78.0,-99.9,-100.00,WNW,286,1.0,3.0,-999,0.00,,,-99.99,,2013-08-21 14:02:00,
2013-08-21 10:12:00,78.0,-99.9,-100.00,WNW,286,1.0,3.0,-999,0.00,,,-99.99,,2013-08-21 14:12:00,
2013-08-21 10:22:00,78.0,-99.9,-100.00,WNW,286,1.0,3.0,-999,0.00,,,-99.99,,2013-08-21 14:22:00,
2013-08-21 10:52:00,82.0,-99.9,-100.00,WNW,297,5.0,6.0,-999,-99.99,,,-99.99,,2013-08-21 14:52:00,
2013-08-21 11:01:00,82.0,-99.9,-100.00,WNW,297,5.0,6.0,-999,-99.99,,,-99.99,,2013-08-21 15:01:00,
2013-08-21 11:11:00,82.0,-99.9,-100.00,WNW,297,5.0,6.0,-999,-99.99,,,-99.99,,2013-08-21 15:11:00,
2013-08-21 11:22:00,82.0,-99.9,-100.00,WNW,297,5.0,6.0,-999,-99.99,,,-99.99,,2013-08-21 15:22:00,
2013-08-21 11:55:00,84.0,-99.9,-100.00,WNW,284,5.0,8.0,-999,-99.99,,,-99.99,,2013-08-21 15:55:00,
2013-08-21 12:04:00,84.0,-99.9,-100.00,WNW,284,5.0,8.0,-999,-99.99,,,-99.99,,2013-08-21 16:04:00,
2013-08-21 12:13:00,84.0,-99.9,-100.00,WNW,284,5.0,8.0,-999,-99.99,,,-99.99,,2013-08-21 16:13:00,
2013-08-21 12:24:00,84.0,-99.9,-100.00,WNW,284,5.0,8.0,-999,-99.99,,,-99.99,,2013-08-21 16:24:00,
2013-08-21 12:53:00,86.0,-99.9,-100.00,WNW,284,0.0,3.0,-999,-99.99,,,-99.99,,2013-08-21 16:53:00,
2013-08-21 13:04:00,86.0,-99.9,-100.00,WNW,284,0.0,3.0,-999,-99.99,,,-99.99,,2013-08-21 17:04:00,
2013-08-21 13:13:00,86.0,-99.9,-100.00,WNW,284,0.0,3.0,-999,-99.99,,,-99.99,,2013-08-21 17:13:00,
2013-08-21 13:23:00,86.0,-99.9,-100.00,WNW,284,0.0,3.0,-999,-99.99,,,-99.99,,2013-08-21 17:23:00,
2013-08-21 13:53:00,87.0,-99.9,-100.00,SSW,213,0.0,9.0,-999,-99.99,,,-99.99,,2013-08-21 17:53:00,
2013-08-21 14:03:00,87.0,-99.9,-100.00,SSW,213,0.0,9.0,-999,-99.99,,,-99.99,,2013-08-21 18:03:00,
2013-08-21 14:12:00,87.0,-99.9,-100.00,SSW,213,0.0,9.0,-999,-99.99,,,-99.99,,2013-08-21 18:12:00,
2013-08-21 14:22:00,87.0,-99.9,-100.00,SSW,213,0.0,9.0,-999,-99.99,,,-99.99,,2013-08-21 18:22:00,
2013-08-21 14:52:00,88.0,-99.9,-100.00,WSW,251,3.0,6.0,-999,-99.99,,,-99.99,,2013-08-21 18:52:00,
2013-08-21 15:02:00,88.0,-99.9,-100.00,WSW,251,3.0,6.0,-999,-99.99,,,-99.99,,2013-08-21 19:02:00,
2013-08-21 15:12:00,88.0,-99.9,-100.00,WSW,251,3.0,6.0,-999,-99.99,,,-99.99,,2013-08-21 19:12:00,
2013-08-21 15:22:00,88.0,-99.9,-100.00,WSW,251,3.0,6.0,-999,-99.99,,,-99.99,,2013-08-21 19:22:00,
2013-08-21 15:53:00,89.0,-99.9,-100.00,SW,234,3.0,9.0,-999,-99.99,,,-99.99,,2013-08-21 19:53:00,
2013-08-21 16:03:00,89.0,-99.9,-100.00,SW,234,3.0,9.0,-999,-99.99,,,-99.99,,2013-08-21 20:03:00,
2013-08-21 16:11:00,89.0,-99.9,-100.00,SW,234,3.0,9.0,-999,-99.99,,,-99.99,,2013-08-21 20:11:00,
2013-08-21 16:22:00,89.0,-99.9,-100.00,SW,234,3.0,9.0,-999,-99.99,,,-99.99,,2013-08-21 20:22:00,
2013-08-21 16:52:00,88.0,-99.9,-100.00,SSW,203,2.0,7.0,-999,-99.99,,,-99.99,,2013-08-21 20:52:00,
2013-08-21 17:02:00,88.0,-99.9,-100.00,SSW,203,2.0,7.0,-999,-99.99,,,-99.99,,2013-08-21 21:02:00,
2013-08-21 17:12:00,88.0,-99.9,-100.00,SSW,203,2.0,7.0,-999,-99.99,,,-99.99,,2013-08-21 21:12:00,
2013-08-21 17:22:00,88.0,-99.9,-100.00,SSW,203,2.0,7.0,-999,-99.99,,,-99.99,,2013-08-21 21:22:00,
2013-08-21 17:55:00,85.0,-99.9,-100.00,SSE,147,7.0,9.0,-999,-99.99,,,-99.99,,2013-08-21 21:55:00,
2013-08-21 18:04:00,85.0,-99.9,-100.00,SSE,147,7.0,9.0,-999,-99.99,,,-99.99,,2013-08-21 22:04:00,
2013-08-21 18:14:00,85.0,-99.9,-100.00,SSE,147,7.0,9.0,-999,-99.99,,,-99.99,,2013-08-21 22:14:00,
2013-08-21 18:24:00,85.0,-99.9,-100.00,SSE,147,7.0,9.0,-999,-99.99,,,-99.99,,2013-08-21 22:24:00,
2013-08-21 18:53:00,85.0,-99.9,-100.00,NW,313,3.0,8.0,-999,-99.99,,,-99.99,,2013-08-21 22:53:00,
2013-08-21 19:04:00,85.0,-99.9,-100.00,NW,313,3.0,8.0,-999,-99.99,,,-99.99,,2013-08-21 23:04:00,
2013-08-21 19:13:00,85.0,-99.9,-100.00,NW,313,3.0,8.0,-999,-99.99,,,-99.99,,2013-08-21 23:13:00,
2013-08-21 19:22:00,85.0,-99.9,-100.00,NW,313,3.0,8.0,-999,-99.99,,,-99.99,,2013-08-21 23:22:00,
2013-08-21 19:53:00,82.0,-99.9,-100.00,NW,317,2.0,3.0,-999,-99.99,,,-99.99,,2013-08-21 23:53:00,
2013-08-21 20:03:00,82.0,-99.9,-100.00,NW,317,2.0,3.0,-999,-99.99,,,-99.99,,2013-08-22 00:03:00,
2013-08-21 20:12:00,82.0,-99.9,-100.00,NW,317,2.0,3.0,-999,-99.99,,,-99.99,,2013-08-22 00:12:00,
2013-08-21 20:22:00,82.0,-99.9,-100.00,NW,317,2.0,3.0,-999,-99.99,,,-99.99,,2013-08-22 00:22:00,
2013-08-21 20:52:00,74.0,-99.9,-100.00,WNW,300,0.0,0.0,-999,-99.99,,,-99.99,,2013-08-22 00:52:00,
2013-08-21 21:02:00,74.0,-99.9,-100.00,WNW,300,0.0,0.0,-999,-99.99,,,-99.99,,2013-08-22 01:02:00,
2013-08-21 21:12:00,74.0,-99.9,-100.00,WNW,300,0.0,0.0,-999,-99.99,,,-99.99,,2013-08-22 01:12:00,
2013-08-21 21:22:00,74.0,-99.9,-100.00,WNW,300,0.0,0.0,-999,-99.99,,,-99.99,,2013-08-22 01:22:00,
2013-08-21 21:52:00,72.0,-99.9,-100.00,WNW,300,0.0,0.0,-999,-99.99,,,-99.99,,2013-08-22 01:52:00,
2013-08-21 22:03:00,72.0,-99.9,-100.00,WNW,300,0.0,0.0,-999,-99.99,,,-99.99,,2013-08-22 02:03:00,
2013-08-21 22:12:00,72.0,-99.9,-100.00,WNW,300,0.0,0.0,-999,-99.99,,,-99.99,,2013-08-22 02:12:00,
2013-08-21 22:22:00,72.0,-99.9,-100.00,WNW,300,0.0,0.0,-999,-99.99,,,-99.99,,2013-08-22 02:22:00,
2013-08-21 23:12:00,71.0,-99.9,-100.00,NW,313,1.0,2.0,-999,-99.99,,,-99.99,,2013-08-22 03:12:00,
2013-08-21 23:23:00,71.0,-99.9,-100.00,NW,313,1.0,2.0,-999,-99.99,,,-99.99,,2013-08-22 03:23:00,
2013-08-21 23:54:00,73.0,-99.9,-100.00,SSW,208,1.0,2.0,-999,-99.99,,,-99.99,,2013-08-22 03:54:00,